Big Lake, AK

1:19 PM AKDT on September 25, 2016 (GMT -0800)
Wasilla

Weather History for PAWS - April, 2013

Change the Weather History Date:

Tuesday, April 30, 2013

  Actual Average Record
Temperature  
Mean Temperature 36 °F -  
Max Temperature 41 °F 55 °F 68 °F (1976)
Min Temperature 28 °F 31 °F 21 °F (1964)
Degree Days  
Heating Degree Days 30    
Moisture  
Dew Point 22 °F    
Average Humidity 59    
Maximum Humidity 93    
Minimum Humidity 48    
Precipitation  
Precipitation 0.00 in - - ()
Sea Level Pressure  
Sea Level Pressure 29.95 in    
Wind  
Wind Speed 7 mph (ENE)    
Max Wind Speed 14 mph    
Max Gust Speed 17 mph    
Visibility 10 miles    
Events      
Averages and records for this station are not official NWS values.
T = Trace of Precipitation, MM = Missing Value Source: NWS Daily Summary

Daily Weather History Graph

Daily Weather History Graph

Search for Another Location

Airport or City:

Trip Planner

Search our weather history database for the weather conditions in past years. The results will help you decide how hot, cold, wet, or windy it might be!

Date:

Astronomy

Apr. 30, 2013 Rise Set
Actual Time 5:48 AM AKDT 10:03 PM AKDT
Civil Twilight 4:51 AM AKDT 11:02 PM AKDT
Nautical Twilight 3:12 AM AKDT 12:45 AM AKDT
Astronomical Twilight Sun does not set Sun does not set
Moon 2:54 AM AKDT (4/30) 10:12 AM AKDT (4/30)
Length of Visible Light 18h 10m
Length of Day
16h 14m
Waning Gibbous, 68% of the Moon is Illuminated
Apr 30
Waning Gibbous
May 2
Last Quarter
May 9
New
May 17
First Quarter
May 24
Full

Hourly Weather History & Observations

Time (AKDT) Temp. Windchill Dew Point Humidity Pressure Visibility Wind Dir Wind Speed Gust Speed Precip Events Conditions
12:16 AM 35.6 °F 30.7 °F 17.6 °F 48% 30.09 in 10.0 mi East 5.8 mph - N/A   Overcast
12:36 AM 35.6 °F 29.2 °F 17.6 °F 48% 30.09 in 10.0 mi ENE 8.1 mph - N/A   Overcast
12:56 AM 35.6 °F 29.9 °F 17.6 °F 48% 30.08 in 10.0 mi ENE 6.9 mph - N/A   Overcast
1:16 AM 35.6 °F 29.2 °F 17.6 °F 48% 30.08 in 10.0 mi ENE 8.1 mph - N/A   Overcast
1:36 AM 35.6 °F 30.7 °F 17.6 °F 48% 30.08 in 10.0 mi East 5.8 mph - N/A   Overcast
1:56 AM 35.6 °F 31.7 °F 17.6 °F 48% 30.08 in 10.0 mi East 4.6 mph - N/A   Overcast
2:16 AM 35.6 °F 28.0 °F 17.6 °F 48% 30.07 in 10.0 mi ENE 10.4 mph - N/A   Overcast
2:36 AM 35.6 °F 28.6 °F 17.6 °F 48% 30.07 in 10.0 mi ENE 9.2 mph - N/A   Overcast
2:56 AM 35.6 °F 28.0 °F 17.6 °F 48% 30.06 in 10.0 mi ENE 10.4 mph - N/A   Overcast
3:16 AM 35.6 °F 29.2 °F 17.6 °F 48% 30.06 in 10.0 mi ENE 8.1 mph - N/A   Overcast
3:36 AM 35.6 °F 28.6 °F 17.6 °F 48% 30.05 in 10.0 mi NE 9.2 mph - N/A   Overcast
3:56 AM 35.6 °F 30.7 °F 17.6 °F 48% 30.05 in 10.0 mi ENE 5.8 mph - N/A   Overcast
4:16 AM 35.6 °F 29.9 °F 17.6 °F 48% 30.05 in 10.0 mi NE 6.9 mph - N/A   Overcast
4:36 AM 35.6 °F 31.7 °F 17.6 °F 48% 30.04 in 10.0 mi ENE 4.6 mph - N/A   Overcast
4:56 AM 35.6 °F 30.7 °F 17.6 °F 48% 30.04 in 10.0 mi ENE 5.8 mph - N/A   Overcast
5:16 AM 33.8 °F 27.7 °F 17.6 °F 52% 30.03 in 10.0 mi ENE 6.9 mph - N/A   Overcast
5:36 AM 33.8 °F 27.0 °F 17.6 °F 52% 30.03 in 10.0 mi ENE 8.1 mph - N/A   Overcast
5:56 AM 33.8 °F 25.8 °F 17.6 °F 52% 30.02 in 10.0 mi ENE 10.4 mph - N/A   Overcast
6:16 AM 33.8 °F 27.0 °F 17.6 °F 52% 30.02 in 10.0 mi ENE 8.1 mph - N/A   Overcast
6:36 AM 33.8 °F 27.0 °F 17.6 °F 52% 30.01 in 10.0 mi ENE 8.1 mph - N/A   Overcast
6:56 AM 33.8 °F 28.6 °F 17.6 °F 52% 30.01 in 10.0 mi East 5.8 mph - N/A   Overcast
7:16 AM 33.8 °F 27.0 °F 17.6 °F 52% 30.01 in 10.0 mi ENE 8.1 mph - N/A   Overcast
7:36 AM 33.8 °F 27.0 °F 19.4 °F 56% 30.00 in 10.0 mi ENE 8.1 mph - N/A   Overcast
7:56 AM 33.8 °F 27.7 °F 21.2 °F 60% 30.00 in 10.0 mi ENE 6.9 mph - N/A   Overcast
8:16 AM 33.8 °F 27.0 °F 19.4 °F 56% 30.00 in 10.0 mi East 8.1 mph - N/A   Overcast
8:36 AM 33.8 °F 29.6 °F 19.4 °F 56% 29.99 in 10.0 mi ENE 4.6 mph - N/A   Overcast
8:56 AM 33.8 °F 27.7 °F 19.4 °F 56% 29.98 in 10.0 mi ENE 6.9 mph - N/A   Overcast
9:16 AM 33.8 °F 27.0 °F 19.4 °F 56% 29.98 in 10.0 mi ENE 8.1 mph - N/A   Overcast
9:36 AM 35.6 °F 29.9 °F 19.4 °F 52% 29.97 in 10.0 mi ENE 6.9 mph - N/A   Overcast
9:56 AM 35.6 °F 29.2 °F 19.4 °F 52% 29.97 in 10.0 mi ENE 8.1 mph - N/A   Overcast
10:16 AM 35.6 °F 29.2 °F 21.2 °F 56% 29.96 in 10.0 mi ENE 8.1 mph - N/A   Overcast
10:36 AM 35.6 °F 26.6 °F 21.2 °F 56% 29.96 in 10.0 mi ENE 13.8 mph - N/A   Overcast
10:56 AM 35.6 °F 29.2 °F 21.2 °F 56% 29.95 in 10.0 mi ENE 8.1 mph - N/A   Overcast
11:16 AM 35.6 °F 29.2 °F 21.2 °F 56% 29.95 in 10.0 mi ENE 8.1 mph - N/A   Overcast
11:36 AM 35.6 °F 28.0 °F 21.2 °F 56% 29.95 in 10.0 mi ENE 10.4 mph - N/A   Overcast
11:56 AM 35.6 °F 29.2 °F 21.2 °F 56% 29.94 in 10.0 mi ENE 8.1 mph - N/A   Overcast
12:16 PM 35.6 °F 27.5 °F 21.2 °F 56% 29.95 in 10.0 mi ENE 11.5 mph 16.1 mph N/A   Overcast
12:36 PM 35.6 °F 28.6 °F 23.0 °F 60% 29.95 in 10.0 mi ENE 9.2 mph 16.1 mph N/A   Overcast
12:56 PM 35.6 °F 27.5 °F 21.2 °F 56% 29.94 in 10.0 mi ENE 11.5 mph - N/A   Overcast
1:16 PM 37.4 °F 30.8 °F 23.0 °F 56% 29.93 in 10.0 mi East 9.2 mph - N/A   Overcast
1:36 PM 37.4 °F 29.3 °F 23.0 °F 56% 29.94 in 10.0 mi ENE 12.7 mph 17.3 mph N/A   Overcast
1:56 PM 37.4 °F 31.4 °F 23.0 °F 56% 29.93 in 10.0 mi East 8.1 mph 17.3 mph N/A   Overcast
2:16 PM 37.4 °F 30.8 °F 23.0 °F 56% 29.92 in 10.0 mi East 9.2 mph - N/A   Overcast
2:36 PM 37.4 °F 31.4 °F 23.0 °F 56% 29.93 in 10.0 mi ENE 8.1 mph - N/A   Overcast
2:56 PM 37.4 °F 31.4 °F 23.0 °F 56% 29.93 in 9.0 mi East 8.1 mph - N/A   Overcast
3:16 PM 37.4 °F 32.1 °F 24.8 °F 60% 29.93 in 9.0 mi ESE 6.9 mph - N/A   Overcast
3:36 PM 37.4 °F 34.9 °F 24.8 °F 60% 29.92 in 10.0 mi SE 3.5 mph - N/A   Overcast
3:56 PM 37.4 °F 34.9 °F 26.6 °F 65% 29.92 in 10.0 mi East 3.5 mph - N/A   Overcast
4:16 PM 35.6 °F 31.7 °F 26.6 °F 70% 29.92 in 10.0 mi East 4.6 mph - N/A   Overcast
4:36 PM 37.4 °F 34.9 °F 26.6 °F 65% 29.91 in 10.0 mi East 3.5 mph - N/A   Overcast
4:56 PM 37.4 °F - 26.6 °F 65% 29.90 in 10.0 mi Calm Calm - N/A   Overcast
5:16 PM 37.4 °F 33.8 °F 24.8 °F 60% 29.89 in 10.0 mi East 4.6 mph - N/A   Overcast
5:36 PM 39.2 °F 35.9 °F 23.0 °F 52% 29.88 in 10.0 mi East 4.6 mph - N/A   Overcast
5:56 PM 39.2 °F - 24.8 °F 56% 29.88 in 10.0 mi Calm Calm - N/A   Overcast
6:16 PM 39.2 °F 37.0 °F 24.8 °F 56% 29.87 in 10.0 mi SSW 3.5 mph - N/A   Overcast
6:36 PM 41.0 °F - 24.8 °F 53% 29.86 in 10.0 mi Calm Calm - N/A   Overcast
6:56 PM 39.2 °F 34.2 °F 24.8 °F 56% 29.86 in 10.0 mi NNW 6.9 mph - N/A   Overcast
7:16 PM 37.4 °F 30.8 °F 28.4 °F 70% 29.85 in 10.0 mi West 9.2 mph - N/A   Overcast
7:36 PM 37.4 °F 31.4 °F 30.2 °F 75% 29.85 in 10.0 mi West 8.1 mph - N/A   Overcast
7:56 PM 37.4 °F 32.8 °F 28.4 °F 70% 29.85 in 10.0 mi West 5.8 mph - N/A   Mostly Cloudy
8:16 PM 35.6 °F 29.2 °F 28.4 °F 75% 29.84 in 10.0 mi West 8.1 mph - N/A   Scattered Clouds
8:36 PM 35.6 °F 31.7 °F 28.4 °F 75% 29.84 in 10.0 mi West 4.6 mph - N/A   Mostly Cloudy
8:56 PM 35.6 °F 32.8 °F 28.4 °F 75% 29.84 in 10.0 mi West 3.5 mph - N/A   Mostly Cloudy
9:16 PM 35.6 °F 31.7 °F 28.4 °F 75% 29.83 in 10.0 mi West 4.6 mph - N/A   Partly Cloudy
9:36 PM 33.8 °F 29.6 °F 28.4 °F 81% 29.83 in 10.0 mi WNW 4.6 mph - N/A   Clear
9:56 PM 33.8 °F 29.6 °F 26.6 °F 75% 29.83 in 10.0 mi NW 4.6 mph - N/A   Scattered Clouds
10:16 PM 32.0 °F 27.5 °F 26.6 °F 80% 29.83 in 10.0 mi WNW 4.6 mph - N/A   Partly Cloudy
10:36 PM 32.0 °F 28.7 °F 26.6 °F 80% 29.82 in 10.0 mi NW 3.5 mph - N/A   Clear
10:56 PM 30.2 °F - 28.4 °F 93% 29.82 in 10.0 mi Calm Calm - N/A   Scattered Clouds
11:16 PM 30.2 °F - 24.8 °F 80% 29.82 in 10.0 mi Calm Calm - N/A   Overcast
11:36 PM 30.2 °F - 26.6 °F 86% 29.82 in 10.0 mi Calm Calm - N/A   Overcast
11:56 PM 28.4 °F - 26.6 °F 93% 29.81 in 10.0 mi Calm Calm - N/A   Scattered Clouds